FDX1156 KCHA-KMEM

Flight info

Callsign FDX1156
Flight time N/A
Altitude 32000
Route TALLO VANZE3
Aircraft B752/M-SDE2E3FGHIJ3J4J7RWXY/LB1

Departure

Time 2026-04-24 20:52
Airport Chattanooga Metropolitan Airport (Lovell Field) (KCHA)

Arrival

Time N/A
Airport Memphis International Airport (KMEM)
Time Latitude Longitude Altitude Speed Heading
2026-04-24 19:58 35.02270 -85.20509 681 ft 0 kts 104°
2026-04-24 20:05 35.02271 -85.20509 681 ft 0 kts 104°
2026-04-24 20:21 35.02270 -85.20509 682 ft 0 kts 104°
2026-04-24 20:29 35.02270 -85.20508 682 ft 0 kts 105°
2026-04-24 20:35 35.02271 -85.20509 682 ft 0 kts 105°
2026-04-24 20:40 35.02270 -85.20508 682 ft 0 kts 105°
2026-04-24 20:40 35.02270 -85.20506 682 ft 0 kts 105°
2026-04-24 20:45 35.02271 -85.20511 682 ft 2 kts 105°
2026-04-24 20:45 35.02275 -85.20528 682 ft 2 kts 105°
2026-04-24 20:45 35.02279 -85.20546 681 ft 2 kts 105°
2026-04-24 20:45 35.02283 -85.20564 681 ft 2 kts 105°
2026-04-24 20:46 35.02287 -85.20582 681 ft 2 kts 105°
2026-04-24 20:46 35.02290 -85.20592 681 ft 1 kts 104°
2026-04-24 20:46 35.02287 -85.20604 681 ft 1 kts 42°
2026-04-24 20:46 35.02282 -85.20608 680 ft 1 kts 10°
2026-04-24 20:47 35.02277 -85.20609 680 ft 0 kts 17°
2026-04-24 20:48 35.02278 -85.20609 680 ft 0 kts 17°
2026-04-24 20:48 35.02311 -85.20597 680 ft 15 kts 16°
2026-04-24 20:49 35.02461 -85.20540 682 ft 26 kts 16°
2026-04-24 20:49 35.02645 -85.20473 682 ft 28 kts 17°
2026-04-24 20:49 35.02842 -85.20401 683 ft 30 kts 17°
2026-04-24 20:49 35.03048 -85.20326 686 ft 31 kts 17°
2026-04-24 20:50 35.03222 -85.20218 685 ft 27 kts 54°
2026-04-24 20:50 35.03360 -85.20089 682 ft 27 kts 17°
2026-04-24 20:50 35.03586 -85.20009 682 ft 37 kts 17°
2026-04-24 20:50 35.03851 -85.19910 682 ft 38 kts 17°
2026-04-24 20:51 35.04004 -85.19860 683 ft 20 kts
2026-04-24 20:51 35.04180 -85.19983 680 ft 31 kts 295°
2026-04-24 20:51 35.04133 -85.20068 680 ft 10 kts 199°
2026-04-24 20:51 35.03919 -85.20146 678 ft 81 kts 197°
2026-04-24 20:52 35.03008 -85.20480 727 ft 184 kts 197°
2026-04-24 20:52 35.01670 -85.21008 1747 ft 210 kts 200°
2026-04-24 20:52 35.00348 -85.21603 3069 ft 222 kts 202°
2026-04-24 20:52 34.98729 -85.22292 4136 ft 269 kts 198°
2026-04-24 20:53 34.97086 -85.22975 5722 ft 253 kts 208°
2026-04-24 20:53 34.95721 -85.24391 6442 ft 269 kts 238°
2026-04-24 20:53 34.95134 -85.26502 7575 ft 271 kts 266°
2026-04-24 20:53 34.95444 -85.28728 8686 ft 276 kts 289°
2026-04-24 20:54 34.96093 -85.30924 9756 ft 280 kts 283°
2026-04-24 20:54 34.96421 -85.33313 10010 ft 291 kts 274°
2026-04-24 20:54 34.96464 -85.35744 9984 ft 281 kts 269°
2026-04-24 20:54 34.96393 -85.38061 9994 ft 274 kts 266°
2026-04-24 20:55 34.96246 -85.40400 10002 ft 277 kts 264°
2026-04-24 20:55 34.96051 -85.42748 10004 ft 279 kts 264°
2026-04-24 20:55 34.95830 -85.45087 10011 ft 278 kts 263°
2026-04-24 20:55 34.95591 -85.47440 10013 ft 278 kts 263°
2026-04-24 20:56 34.95348 -85.49747 10006 ft 277 kts 263°
2026-04-24 20:56 34.95097 -85.52074 9997 ft 278 kts 263°
2026-04-24 20:56 34.94839 -85.54424 9999 ft 279 kts 263°
2026-04-24 20:56 34.94582 -85.56760 10001 ft 279 kts 263°
2026-04-24 20:57 34.94323 -85.59093 9993 ft 277 kts 262°
2026-04-24 20:57 34.94062 -85.61426 9998 ft 277 kts 263°
2026-04-24 20:57 34.93805 -85.63734 9995 ft 278 kts 262°
2026-04-24 20:57 34.93544 -85.66065 9995 ft 277 kts 262°
2026-04-24 20:58 34.93280 -85.68408 9992 ft 278 kts 262°
2026-04-24 20:58 34.93008 -85.70829 10083 ft 302 kts 262°
2026-04-24 20:58 34.92717 -85.73408 10913 ft 317 kts 262°
2026-04-24 20:58 34.92421 -85.76024 12160 ft 315 kts 262°
2026-04-24 20:59 34.92115 -85.78732 12956 ft 329 kts 263°
2026-04-24 20:59 34.91804 -85.81465 14033 ft 330 kts 263°
2026-04-24 20:59 34.91492 -85.84218 15004 ft 335 kts 263°
2026-04-24 20:59 34.91171 -85.87035 15983 ft 338 kts 263°
2026-04-24 21:00 34.90848 -85.89860 16923 ft 342 kts 263°
2026-04-24 21:00 34.90523 -85.92704 17839 ft 345 kts 263°
2026-04-24 21:00 34.90189 -85.95628 18630 ft 352 kts 263°
2026-04-24 21:00 34.89850 -85.98573 19533 ft 356 kts 264°
2026-04-24 21:01 34.89504 -86.01585 20341 ft 363 kts 263°
2026-04-24 21:01 34.89154 -86.04627 20769 ft 367 kts 263°
2026-04-24 21:01 34.88800 -86.07667 20740 ft 356 kts 263°
2026-04-24 21:01 34.88456 -86.10638 20085 ft 356 kts 263°
2026-04-24 21:02 34.88116 -86.13562 19934 ft 343 kts 263°
2026-04-24 21:02 34.87781 -86.16441 19976 ft 350 kts 263°
2026-04-24 21:02 34.87434 -86.19423 20039 ft 363 kts 263°
2026-04-24 21:02 34.87078 -86.22467 20047 ft 361 kts 263°
2026-04-24 21:03 34.86724 -86.25487 19968 ft 358 kts 263°
2026-04-24 21:03 34.86375 -86.28455 20011 ft 354 kts 263°